[Date Prev][Date Next][Thread Prev][Thread Next] - [Date Index][Thread Index][Author Index]
2 Line ISS Keps 12-21
- Subject: [sarex] 2 Line ISS Keps 12-21
- From: "Dave Larsen PhD" <doc@xxxxxxxxxxx>
- Date: Fri, 21 Dec 2001 02:43:56 -0800
ISS
1 25544U 98067A 01355.15960633 .00056551 00000-0 67952-3 0 8686
2 25544 51.6382 227.8980 0003002 53.3764 89.8062 15.60303294176253
----
Via the sarex mailing list at AMSAT.ORG courtesy of AMSAT-NA.
To unsubscribe, send "unsubscribe sarex" to Majordomo@amsat.org
AMSAT Home